CW1656 Weather Reports


Display with metric or nautical units.
time (UTC)temp
F
wind
direction
speed
MPH
gust
MPH
rain 1hr
in
rain 24hr
in
rain mn
in
humidity
%
barometer
mb
20260906051501 61 290 0.0 0.0 0.00 0.00 0.00 97 1016.9
20260906050001 61 290 0.0 0.0 0.00 0.00 0.00 97 1017.0
20260906044600 61 290 0.0 0.0 0.00 0.00 0.00 97 1017.0
20260906043058 61 290 0.0 0.0 0.00 0.00 0.00 97 1016.9
20260906041556 60 290 0.0 0.0 0.00 0.00 0.00 97 1016.8
20260906040116 60 290 0.0 0.0 0.00 0.00 0.00 96 1016.7
20260906034603 61 290 0.0 0.0 0.00 0.00 0.00 96 1016.8
20260906033054 61 290 0.0 0.0 0.00 0.00 0.00 96 1016.7
20260906031557 61 290 0.0 0.0 0.00 0.00 0.00 96 1016.6
20260906030052 62 290 0.0 0.0 0.00 0.00 0.00 95 1016.5
20260906024548 63 290 0.0 0.0 0.00 0.00 0.00 95 1016.5
20260906023051 63 290 0.0 0.0 0.00 0.00 0.00 95 1016.5
20260906021600 63 290 0.0 0.0 0.00 0.00 0.00 94 1016.4
20260906020054 64 290 0.0 0.0 0.00 0.00 0.00 94 1016.3
20260906014555 64 290 0.0 0.0 0.00 0.00 0.00 93 1016.2
20260906013044 65 290 0.0 0.0 0.00 0.00 0.00 93 1016.2
20260906011543 65 290 0.0 0.0 0.00 0.00 0.00 93 1016.2
20260906010043 65 290 0.0 0.0 0.00 0.00 0.00 92 1016.1
20260906004542 65 290 0.0 0.0 0.00 0.00 0.00 91 1016.1
20260906003045 65 290 0.0 0.0 0.00 0.00 0.00 91 1015.8
20260906001540 66 290 0.0 0.0 0.00 0.00 0.00 90 1015.8
20260906000040 66 290 0.0 0.0 0.00 0.00 0.00 88 1016.0
20260905234540 66 290 0.0 0.0 0.00 0.00 0.00 86 1016.1
20260905233042 67 290 0.0 0.0 0.00 0.00 0.00 83 1016.0
20260905231541 68 290 0.0 0.0 0.00 0.00 0.00 81 1016.0
20260905230037 70 336 0.0 1.0 0.00 0.00 0.00 78 1016.1
20260905224536 70 277 1.0 3.0 0.00 0.00 0.00 75 1016.0
20260905223039 71 267 0.0 2.0 0.00 0.00 0.00 74 1015.9
20260905221544 71 323 1.0 4.0 0.00 0.00 0.00 73 1015.8
20260905220034 71 283 1.0 3.0 0.00 0.00 0.00 71 1015.8
20260905214533 72 283 1.0 6.0 0.00 0.00 0.00 71 1015.7
20260905213035 72 355 0.0 7.0 0.00 0.00 0.00 71 1015.4
20260905211542 72 276 0.0 5.0 0.00 0.00 0.00 69 1015.3
20260905210038 72 294 0.0 6.0 0.00 0.00 0.00 71 1015.3
20260905204531 72 281 0.0 6.0 0.00 0.00 0.00 68 1015.2
20260905203034 72 275 0.0 4.0 0.00 0.00 0.00 68 1015.3
20260905201535 72 285 0.0 4.0 0.00 0.00 0.00 69 1015.4
20260905200047 72 344 1.0 9.0 0.00 0.00 0.00 64 1015.3
20260905194533 73 275 3.0 8.0 0.00 0.00 0.00 67 1015.4
20260905193028 72 313 3.0 10.0 0.00 0.00 0.00 67 1015.5
20260905191527 73 281 2.0 5.0 0.00 0.00 0.00 68 1015.5
20260905190027 73 298 1.0 6.0 0.00 0.00 0.00 71 1015.6
20260905184532 74 251 1.0 8.0 0.00 0.00 0.00 70 1015.6
20260905183026 73 239 3.0 7.0 0.00 0.00 0.00 69 1015.3
20260905181525 74 281 1.0 7.0 0.00 0.00 0.00 69 1015.2
20260905180024 74 277 2.0 7.0 0.00 0.00 0.00 67 1015.3
20260905174522 73 281 3.0 8.0 0.00 0.00 0.00 67 1015.3
20260905173023 72 272 1.0 5.0 0.00 0.00 0.00 68 1015.4
20260905171536 72 262 0.0 4.0 0.00 0.00 0.00 72 1015.3
20260905170027 73 282 3.0 6.0 0.00 0.00 0.00 68 1015.3
20260905164520 72 267 1.0 7.0 0.00 0.00 0.00 69 1015.3
20260905163021 73 293 1.0 6.0 0.00 0.00 0.00 71 1015.4
20260905161520 72 321 0.0 5.0 0.00 0.00 0.00 74 1015.4
20260905160027 70 297 2.0 10.0 0.00 0.00 0.00 72 1015.5
20260905154530 72 216 0.0 4.0 0.00 0.00 0.00 72 1015.5
20260905153015 71 286 2.0 9.0 0.00 0.00 0.00 72 1015.7
20260905151515 69 76 0.0 5.0 0.00 0.00 0.00 81 1015.6
20260905150010 71 316 3.0 9.0 0.00 0.00 0.00 76 1015.6
20260905144506 70 279 1.0 6.0 0.00 0.00 0.00 79 1015.5
20260905143003 68 40 1.0 8.0 0.00 0.00 0.00 85 1015.4
20260905141559 66 284 3.0 8.0 0.00 0.00 0.00 91 1015.5
20260905140057 65 279 2.0 5.0 0.00 0.00 0.00 96 1015.6
20260905134557 64 274 0.0 7.0 0.00 0.00 0.00 98 1015.7
20260905133053 64 279 1.0 10.0 0.00 0.00 0.00 98 1015.7
20260905131554 63 270 1.0 8.0 0.00 0.00 0.00 99 1015.6
20260905130050 63 272 0.0 4.0 0.00 0.00 0.00 99 1015.8
20260905124551 62 279 0.0 2.0 0.00 0.00 0.00 99 1016.0
20260905123048 62 291 0.0 1.0 0.00 0.00 0.00 99 1015.7
20260905121547 61 288 0.0 1.0 0.00 0.00 0.00 98 1015.8
20260905120045 60 288 0.0 0.0 0.00 0.00 0.00 98 1015.7
20260905114553 59 288 0.0 0.0 0.00 0.00 0.00 98 1015.5
20260905113043 58 288 0.0 0.0 0.00 0.00 0.00 98 1015.3
20260905111542 58 288 0.0 0.0 0.00 0.00 0.00 98 1015.2
20260905110041 58 288 0.0 0.0 0.00 0.00 0.00 98 1015.2
20260905104546 57 288 0.0 0.0 0.00 0.00 0.00 98 1015.4
20260905103040 58 288 0.0 0.0 0.00 0.00 0.00 98 1014.9
20260905101539 58 288 0.0 0.0 0.00 0.00 0.00 98 1014.7
20260905100036 59 288 0.0 0.0 0.00 0.00 0.00 98 1014.7
20260905094550 58 288 0.0 0.0 0.00 0.00 0.00 98 1014.7
20260905093042 59 288 0.0 0.0 0.00 0.00 0.00 98 1014.6
20260905091534 59 288 0.0 0.0 0.00 0.00 0.00 97 1014.5
20260905090033 59 288 0.0 0.0 0.00 0.00 0.00 97 1014.3
20260905084537 59 288 0.0 0.0 0.00 0.00 0.00 97 1014.3
20260905083030 60 288 0.0 0.0 0.00 0.00 0.00 97 1014.3
20260905081527 60 288 0.0 0.0 0.00 0.00 0.00 97 1014.4
20260905080042 60 288 0.0 0.0 0.00 0.00 0.00 97 1014.5
20260905074524 61 288 0.0 0.0 0.00 0.00 0.00 97 1014.6
20260905073036 61 288 0.0 0.0 0.00 0.00 0.00 97 1014.6
20260905071522 61 288 0.0 0.0 0.00 0.00 0.00 96 1014.6
20260905070020 61 288 0.0 0.0 0.00 0.00 0.00 96 1014.6
20260905064518 62 288 0.0 0.0 0.00 0.00 0.00 96 1014.8
20260905063018 62 288 0.0 0.0 0.00 0.00 0.00 96 1014.8
20260905061517 63 288 0.0 0.0 0.00 0.00 0.00 96 1014.9
20260905060013 63 288 0.0 0.0 0.00 0.00 0.00 96 1014.9
20260905054512 63 288 0.0 0.0 0.00 0.00 0.00 95 1014.9
20260905053018 63 288 0.0 0.0 0.00 0.00 0.00 95 1015.0